Regional Weather Roundup
Issued by NWS

Home | Current Version | Previous Version | Graphics & Text | Print | Product List | Glossary On
Versions: 1 2 3 4 5 6 7 8 9 10 11 12 13 14 15 16 17 18 19 20 21 22 23 24 25 26 27 28 29 30 31 32 33 34 35 36 37 38 39 40 41 42 43 44 45 46 47 48
000
ASUS45 KCYS 191210
RWRWY

WYOMING REGIONAL WEATHER ROUNDUP
NATIONAL WEATHER SERVICE CHEYENNE WY
500 AM MST FRI DEC 19 2014

NOTE:  "FAIR" INDICATES FEW OR NO CLOUDS BELOW 12,000 FEET
WITH NO SIGNIFICANT WEATHER AND/OR OBSTRUCTIONS TO VISIBILITY.

WYZ001-191300-
YELLOWSTONE NATIONAL PARK

CITY           SKY/WX    TMP DP  RH WIND       PRES   REMARKS
LK YELLOWSTONE   N/A     23  19  85 VRB5      30.06F WCI  17
6HR MIN TEMP:  22; 6HR MAX TEMP:  23; 6HR PCP:  0.01;

W YELLOWSTONE  NOT AVBL

$$
WYZ002>013-054>058-071-098>099-191300-
NORTHERN WYOMING

CITY           SKY/WX    TMP DP  RH WIND       PRES   REMARKS
JACKSON        CLOUDY    28  27  93 SW13      30.09R WCI  18
CODY           FAIR      27  18  69 SE9       29.97S WCI  17
GREYBULL       FAIR       7   4  87 CALM      30.05F
6HR MIN TEMP:   6; 6HR MAX TEMP:  13;

WORLAND        FAIR       4  -1  80 S8        30.04S WCI  -9
6HR MIN TEMP:  -3; 6HR MAX TEMP:  11;

SHERIDAN       FAIR      23  13  65 S5        29.95F WCI  17
6HR MIN TEMP:  16; 6HR MAX TEMP:  26;

BUFFALO        FAIR      29  11  47 SW7       29.97S WCI  22
6HR MIN TEMP:  25; 6HR MAX TEMP:  30;

GILLETTE       FAIR      16  10  77 CALM      29.97S
6HR MIN TEMP:  14; 6HR MAX TEMP:  30;

HULETT           N/A    N/A N/A N/A MISG        N/A
NEWCASTLE      FAIR      14  14 100 N3        30.02R

$$
WYZ014>020-022>026-101>103-191300-
CENTRAL WYOMING

CITY           SKY/WX    TMP DP  RH WIND       PRES   REMARKS
BIG PINEY      CLOUDY    15  11  83 CALM      30.12S
6HR MIN TEMP:   8; 6HR MAX TEMP:  15;

PINEDALE       CLOUDY    19  19 100 CALM      30.11S
DUBOIS         CLOUDY    27  18  69 NW9G16    30.00F WCI  17
LANDER         FOG       -2  -5  87 CALM      30.04F VSB 3/4
6HR MIN TEMP:  -4; 6HR MAX TEMP:   6;

RIVERTON       FOG        5   2  87 CALM      30.05F VSB 1/4
6HR MIN TEMP:   5; 6HR MAX TEMP:  10;

CASPER         FAIR      23  15  71 SW14      30.04S WCI  11
6HR MIN TEMP:  22; 6HR MAX TEMP:  24;

DOUGLAS        FAIR      17  13  84 N10       30.02S WCI   5
6HR MIN TEMP:  11; 6HR MAX TEMP:  20;


$$
WYZ021-027>030-104>119-191300-
SOUTHERN WYOMING

CITY           SKY/WX    TMP DP  RH WIND       PRES   REMARKS
EVANSTON       CLOUDY    21  20  96 SW10      30.15S WCI  10
6HR MIN TEMP:  19; 6HR MAX TEMP:  21;

KEMMERER       CLOUDY    21  21 100 W9        30.13S WCI  11
FORT BRIDGER   FAIR      25  18  73 SW10      30.17S WCI  15
ROCK SPRINGS   FAIR      19  15  84 SW12      30.13S WCI   7
6HR MIN TEMP:  18; 6HR MAX TEMP:  22;

DIXON          CLOUDY   N/A N/A N/A CALM      30.20S
RAWLINS        FAIR      21  17  84 SW20      30.08S WCI   6
6HR MIN TEMP:  20; 6HR MAX TEMP:  23;

SARATOGA       FAIR      12   9  85 E5        30.12R WCI   4
LARAMIE        FAIR      17  10  74 SW17      30.05R WCI   1
6HR MIN TEMP:  10; 6HR MAX TEMP:  20;

CHEYENNE       FAIR      23  11  60 SW9       30.03S WCI  13
6HR MIN TEMP:  20; 6HR MAX TEMP:  26;

TORRINGTON     FAIR     N/A N/A N/A CALM      30.04S HAZE
PINE BLUFFS    FAIR      16  12  86 W5        30.06S WCI   9

$$


USA.gov is the U.S. government's official web portal to all federal, state and local government web resources and services.